Tiempo cada hora Dabroszyn

Hoy, 4 Agosto, Miércoles

Tiempo Temperatura Precipitaciones Viento Presión Humedad
00:00 +17°C° 0.1 mm 2 mps 756 mmHg 68%
01:00 +18°C° 0.1 mm 1 mps 756 mmHg 71%
02:00 +18°C° 0.7 mm 1 mps 756 mmHg 78%
03:00 +16°C° 0.7 mm 1 mps 756 mmHg 85%
04:00 +16°C° 0.7 mm 1 mps 756 mmHg 91%
05:00 +16°C° 0.2 mm 1 mps 756 mmHg 90%
06:00 +16°C° 0.2 mm 2 mps 756 mmHg 89%
07:00 +16°C° 0.2 mm 2 mps 757 mmHg 88%
08:00 +17°C° 0.1 mm 2 mps 757 mmHg 82%
09:00 +18°C° 0.1 mm 2 mps 757 mmHg 77%
10:00 +19°C° 0.1 mm 2 mps 757 mmHg 71%
11:00 +21°C° 0.3 mm 2 mps 757 mmHg 65%
12:00 +23°C° 0.3 mm 2 mps 756 mmHg 59%
13:00 +24°C° 0.3 mm 2 mps 756 mmHg 52%
14:00 +24°C° 0.2 mm 2 mps 756 mmHg 51%
15:00 +24°C° 0.2 mm 3 mps 756 mmHg 50%
16:00 +24°C° 0.2 mm 3 mps 756 mmHg 49%
17:00 +22°C° 0.1 mm 3 mps 756 mmHg 54%
18:00 +21°C° 0.1 mm 2 mps 756 mmHg 60%
19:00 +20°C° 0.1 mm 2 mps 756 mmHg 65%
20:00 +19°C° 0 mm 2 mps 756 mmHg 69%
21:00 +18°C° 0 mm 2 mps 756 mmHg 73%
22:00 +17°C° 0 mm 2 mps 756 mmHg 76%
23:00 +16°C° 0 mm 2 mps 756 mmHg 78%

Mañana, 5 Agosto, Jueves

Tiempo Temperatura Precipitaciones Viento Presión Humedad
00:00 +16°C° 0 mm 2 mps 756 mmHg 80%
01:00 +15°C° 0 mm 2 mps 756 mmHg 82%
02:00 +15°C° 0 mm 2 mps 756 mmHg 84%
03:00 +15°C° 0 mm 2 mps 756 mmHg 87%
04:00 +14°C° 0 mm 2 mps 755 mmHg 89%
05:00 +14°C° 0 mm 3 mps 755 mmHg 85%
06:00 +17°C° 0 mm 3 mps 755 mmHg 82%
07:00 +18°C° 0 mm 3 mps 755 mmHg 78%
08:00 +19°C° 0 mm 3 mps 755 mmHg 71%
09:00 +21°C° 0 mm 4 mps 755 mmHg 63%
10:00 +22°C° 0 mm 4 mps 755 mmHg 56%
11:00 +24°C° 0.1 mm 3 mps 754 mmHg 54%
12:00 +25°C° 0.1 mm 3 mps 754 mmHg 51%
13:00 +26°C° 0.1 mm 3 mps 754 mmHg 48%
14:00 +25°C° 0.3 mm 3 mps 753 mmHg 52%
15:00 +25°C° 0.3 mm 4 mps 753 mmHg 56%
16:00 +23°C° 0.3 mm 4 mps 753 mmHg 60%
17:00 +22°C° 0.6 mm 4 mps 753 mmHg 65%
18:00 +21°C° 0.6 mm 3 mps 753 mmHg 70%
19:00 +20°C° 0.6 mm 3 mps 753 mmHg 75%
20:00 +19°C° 0.2 mm 2 mps 753 mmHg 77%
21:00 +19°C° 0.2 mm 2 mps 753 mmHg 79%
22:00 +19°C° 0.2 mm 1 mps 753 mmHg 80%
23:00 +19°C° 0.1 mm 1 mps 753 mmHg 81%

Pasado mañana, 6 Agosto, Viernes

Tiempo Temperatura Precipitaciones Viento Presión Humedad
00:00 +19°C° 0.1 mm 1 mps 752 mmHg 83%
01:00 +18°C° 0.1 mm 1 mps 752 mmHg 84%
02:00 +18°C° 0.1 mm 1 mps 752 mmHg 84%
03:00 +18°C° 0.1 mm 1 mps 752 mmHg 85%
04:00 +18°C° 0.1 mm 1 mps 752 mmHg 85%
05:00 +18°C° 0.2 mm 1 mps 752 mmHg 84%
06:00 +19°C° 0.2 mm 1 mps 752 mmHg 84%
07:00 +18°C° 0.2 mm 2 mps 752 mmHg 83%
08:00 +19°C° 0.3 mm 2 mps 752 mmHg 78%
09:00 +20°C° 0.3 mm 2 mps 752 mmHg 72%
10:00 +23°C° 0.3 mm 2 mps 752 mmHg 66%
11:00 +23°C° 0.5 mm 2 mps 752 mmHg 62%
12:00 +24°C° 0.5 mm 2 mps 752 mmHg 59%
13:00 +25°C° 0.5 mm 2 mps 752 mmHg 55%
14:00 +25°C° 0.3 mm 2 mps 752 mmHg 54%
15:00 +25°C° 0.3 mm 3 mps 752 mmHg 53%
16:00 +25°C° 0.3 mm 3 mps 752 mmHg 53%
17:00 +24°C° 0.1 mm 3 mps 752 mmHg 57%
18:00 +22°C° 0.1 mm 3 mps 752 mmHg 62%
19:00 +21°C° 0.1 mm 3 mps 752 mmHg 67%
20:00 +20°C° 0 mm 3 mps 752 mmHg 70%
21:00 +19°C° 0 mm 3 mps 752 mmHg 73%
22:00 +18°C° 0 mm 3 mps 752 mmHg 77%
23:00 +17°C° 0.1 mm 2 mps 752 mmHg 79%

7 Agosto, Sábado

Tiempo Temperatura Precipitaciones Viento Presión Humedad
00:00 +17°C° 0.1 mm 2 mps 752 mmHg 82%
01:00 +16°C° 0.1 mm 2 mps 752 mmHg 84%
02:00 +16°C° 0 mm 2 mps 752 mmHg 87%
03:00 +16°C° 0 mm 2 mps 752 mmHg 90%
04:00 +15°C° 0 mm 2 mps 752 mmHg 93%
05:00 +17°C° 0 mm 2 mps 752 mmHg 89%
06:00 +18°C° 0 mm 2 mps 752 mmHg 85%
07:00 +19°C° 0 mm 2 mps 752 mmHg 81%
08:00 +20°C° 0 mm 2 mps 752 mmHg 74%
09:00 +22°C° 0 mm 3 mps 752 mmHg 68%
10:00 +24°C° 0 mm 3 mps 752 mmHg 61%
11:00 +25°C° 0 mm 4 mps 752 mmHg 56%
12:00 +26°C° 0 mm 4 mps 752 mmHg 51%
13:00 +26°C° 0 mm 4 mps 752 mmHg 46%
14:00 +26°C° 0 mm 4 mps 752 mmHg 46%
15:00 +26°C° 0 mm 4 mps 752 mmHg 46%
16:00 +26°C° 0 mm 4 mps 752 mmHg 46%
17:00 +25°C° 0 mm 3 mps 752 mmHg 50%
18:00 +24°C° 0 mm 2 mps 752 mmHg 55%
19:00 +23°C° 0 mm 1 mps 752 mmHg 60%
20:00 +22°C° 0.3 mm 1 mps 752 mmHg 67%
21:00 +21°C° 0.3 mm 1 mps 752 mmHg 74%
22:00 +19°C° 0.3 mm 2 mps 753 mmHg 82%
23:00 +19°C° 0.4 mm 3 mps 753 mmHg 85%

8 Agosto, Domingo

Tiempo Temperatura Precipitaciones Viento Presión Humedad
00:00 +18°C° 0.4 mm 3 mps 753 mmHg 89%
01:00 +18°C° 0.4 mm 4 mps 753 mmHg 92%
02:00 +18°C° 0.1 mm 4 mps 753 mmHg 92%
03:00 +17°C° 0.1 mm 4 mps 753 mmHg 93%
04:00 +17°C° 0.1 mm 4 mps 753 mmHg 93%
05:00 +18°C° 0 mm 4 mps 753 mmHg 90%
06:00 +17°C° 0 mm 5 mps 754 mmHg 86%
07:00 +17°C° 0 mm 5 mps 754 mmHg 83%
08:00 +20°C° 0 mm 5 mps 755 mmHg 73%
09:00 +21°C° 0 mm 5 mps 755 mmHg 62%
10:00 +23°C° 0 mm 5 mps 755 mmHg 52%
11:00 +25°C° 0 mm 5 mps 756 mmHg 47%
12:00 +26°C° 0 mm 5 mps 756 mmHg 43%
13:00 +26°C° 0 mm 5 mps 756 mmHg 38%
14:00 +26°C° 0 mm 5 mps 756 mmHg 39%
15:00 +26°C° 0 mm 4 mps 756 mmHg 40%
16:00 +26°C° 0 mm 4 mps 757 mmHg 42%
17:00 +25°C° 0 mm 4 mps 757 mmHg 47%
18:00 +24°C° 0 mm 3 mps 757 mmHg 53%
19:00 +21°C° 0 mm 2 mps 758 mmHg 59%
20:00 +20°C° 0.3 mm 2 mps 758 mmHg 66%
21:00 +18°C° 0.3 mm 2 mps 759 mmHg 73%
22:00 +17°C° 0.3 mm 2 mps 759 mmHg 80%
23:00 +17°C° 0 mm 2 mps 759 mmHg 82%

9 Agosto, Lunes

Tiempo Temperatura Precipitaciones Viento Presión Humedad
00:00 +16°C° 0 mm 2 mps 759 mmHg 85%
01:00 +16°C° 0 mm 2 mps 760 mmHg 87%
02:00 +15°C° 0 mm 2 mps 760 mmHg 88%
03:00 +15°C° 0 mm 2 mps 760 mmHg 88%
04:00 +15°C° 0 mm 2 mps 760 mmHg 89%
05:00 +16°C° 0 mm 2 mps 760 mmHg 85%
06:00 +17°C° 0 mm 2 mps 760 mmHg 81%
07:00 +18°C° 0 mm 2 mps 761 mmHg 77%
08:00 +19°C° 0 mm 2 mps 761 mmHg 68%
09:00 +21°C° 0 mm 3 mps 761 mmHg 60%
10:00 +24°C° 0 mm 3 mps 761 mmHg 52%
11:00 +25°C° 0 mm 4 mps 760 mmHg 47%
12:00 +26°C° 0 mm 4 mps 760 mmHg 42%
13:00 +27°C° 0 mm 4 mps 760 mmHg 37%
14:00 +26°C° 0 mm 4 mps 760 mmHg 40%
15:00 +25°C° 0 mm 3 mps 760 mmHg 44%
16:00 +25°C° 0 mm 3 mps 760 mmHg 47%
17:00 +24°C° 0 mm 3 mps 760 mmHg 51%
18:00 +21°C° 0 mm 2 mps 760 mmHg 54%
19:00 +20°C° 0 mm 2 mps 759 mmHg 58%
20:00 +19°C° 0.4 mm 2 mps 760 mmHg 68%
21:00 +18°C° 0.4 mm 2 mps 760 mmHg 77%
22:00 +16°C° 0.4 mm 1 mps 760 mmHg 87%
23:00 +16°C° 0 mm 2 mps 760 mmHg 89%
Mostrar más

Necesitamos Su Consentimiento

Meteoprog y nuestros Proveedores de Servicios pueden almacenar y acceder a sus datos personales como cookies, identificadores de dispositivo u otras tecnologías similares de su dispositivo y procesar dichos datos para personalizar contenido y anuncios, además de ofrecer funciones de redes sociales y analizar el tráfico.

  • Almacenar y/o acceder a información en su dispositivo

    Se puede almacenar o acceder a cookies, identificadores de dispositivo u otra información de su dispositivo para los fines anteriormente indicados.

  • Anuncios y contenido personalizados, medición de anuncios y contenido, percepciones del público, y desarrollo de productos

    Los anuncios y el contenido pueden personalizarse en base a su perfil. Se pueden añadir más datos para personalizar mejor los anuncios y contenidos. Se puede medir el rendimiento de los anuncios y contenidos. Se puede obtener la percepción sobre el público que ha visto los anuncios y contenidos. Dichos datos pueden usarse para desarrollar o mejorar la experiencia del usuario, sistemas y software.

Al hacer clic en ‘Estoy De Acuerdo’ usted permitirá el uso de las cookies, identificadores de dispositivo, balizas web u otras tecnologías similares indicadas. Su configuración puede cambiarse desde el navegador de su dispositivo.

Para ciertos fines, los intereses legítimos pueden ser considerados por encima del consentimiento. Puede leer más sobre ello en nuestra Política de Privacidad y Cookies.